[[{"header":{"parameterUnit":"m.s-1","parameterCategory":1,"la1":30.2991,"la2":30.254,"lo1":-89.0895,"lo2":-89.0444,"dy":0.0017,"dx":0.0017,"nx":28,"ny":28,"refTime":"2025-01-28T03:00:00:Z","depth":0,"parameterNumber":2,"parameterNumberName":"U-component_of_WINDS"},"data":[0,0,0,0,0,0,0,0,0,0,0,0,0,0,0,0,0,0,0,0,0,0,0,0,0,0,0,0,0,0,0,0,0,0,0,0,0,0,0,0,0,0,0,0,0,0,0,0,0,0,0,0,0,0,0,0,0,0,-1.6286,-1.6286,0,-1.6296,-1.6296,-1.6296,-1.6245,-1.6243,-1.6242,-1.624,-1.6251,-1.6252,-1.6254,0,0,0,0,0,0,0,0,0,0,0,0,0,-1.6221,-1.6223,-1.6286,-1.6286,-1.6286,-1.6296,-1.6296,-1.6296,-1.6245,-1.6243,-1.6241,-1.6239,-1.625,-1.6252,-1.6254,0,0,0,0,0,0,0,0,0,0,0,0,0,-1.6242,-1.6223,-1.6286,-1.6262,-1.6259,-1.6296,-1.6296,-1.6296,-1.6245,-1.6243,-1.6241,-1.6239,-1.625,-1.6252,-1.6254,-1.6315,0,0,-1.6262,-1.6263,0,0,0,0,0,0,0,0,-1.6241,-1.6245,-1.6265,-1.6263,-1.6261,-1.6267,-1.6277,-1.6303,-1.6246,-1.6251,-1.624,-1.6237,-1.6258,-1.626,-1.6266,-1.6315,-1.6316,-1.6262,-1.6264,-1.6265,-1.6266,0,0,0,0,0,0,0,-1.624,-1.6244,-1.629,-1.6265,-1.6263,-1.625,-1.6251,-1.6282,-1.6267,-1.625,-1.6246,-1.6248,-1.6256,-1.6264,-1.6266,-1.6316,-1.6262,-1.6265,-1.6266,-1.6267,-1.6415,-1.6417,0,0,0,0,0,0,-1.6241,-1.6243,-1.629,-1.629,-1.6245,-1.6253,-1.6254,-1.6267,-1.6266,-1.6264,-1.625,-1.6246,-1.6261,-1.6263,-1.6266,-1.6337,-1.6265,-1.6267,-1.6269,-1.6413,-1.6415,-1.6418,0,0,0,0,0,0,-1.624,-1.6246,-1.6289,-1.6266,-1.627,-1.6257,-1.6272,-1.6269,-1.6276,-1.6266,-1.6263,-1.6261,-1.6259,-1.6263,-1.6303,-1.6337,-1.6268,-1.6271,-1.641,-1.6413,-1.6417,-1.6479,0,0,0,0,0,0,-1.6239,-1.6246,-1.6269,-1.6266,-1.6272,-1.6326,-1.6274,-1.627,-1.6281,-1.6275,-1.6276,-1.6274,-1.6258,-1.63,-1.6306,-1.6339,-1.6273,-1.6407,-1.6411,-1.6416,-1.6474,-1.6485,-1.6493,0,0,0,0,0,-1.6236,-1.6286,-1.627,-1.6276,-1.63,-1.6328,-1.6331,-1.6312,-1.6284,-1.6307,-1.63,-1.6274,-1.6332,-1.6304,-1.6311,-1.6345,-1.6404,-1.641,-1.6415,-1.647,-1.6482,-1.6493,0,0,0,0,0,0,-1.6293,-1.6285,-1.6268,-1.6318,-1.6324,-1.6319,-1.6347,-1.6326,-1.634,-1.6334,-1.631,-1.631,-1.6355,-1.6354,-1.6323,-1.6404,-1.6363,-1.637,-1.6403,-1.6415,-1.6424,-1.6424,-1.6275,0,0,0,0,0,-1.6311,-1.6335,-1.6327,-1.6372,-1.6376,-1.6361,-1.6373,-1.6358,-1.6363,-1.6365,-1.6361,-1.6368,-1.6387,-1.6401,-1.6418,-1.6474,-1.6473,-1.65,-1.651,-1.6518,-1.6525,-1.6554,-1.6566,-1.6436,-1.6436,-1.6436,0,0,-1.6349,-1.6348,-1.6364,-1.6383,-1.6386,-1.6411,-1.6364,-1.6392,-1.641,-1.6369,-1.6407,-1.6405,-1.641,-1.6458,-1.6479,-1.6459,-1.656,-1.6525,-1.6531,-1.6534,-1.656,-1.6573,-1.6584,-1.644,-1.6439,-1.6438,0,0,-1.6431,-1.6433,-1.647,-1.6474,-1.6479,-1.6469,-1.6478,-1.6477,-1.6474,-1.6511,-1.6481,-1.6502,-1.6537,-1.6541,-1.6548,-1.6632,-1.6608,-1.6639,-1.6689,-1.6718,-1.6728,-1.6737,-1.6767,-1.6778,-1.6645,-1.6645,-1.6645,0,-1.6478,-1.6514,-1.6493,-1.6523,-1.6532,-1.6496,-1.6534,-1.6539,-1.6549,-1.6557,-1.6533,-1.6576,-1.6577,-1.6626,-1.6646,-1.6653,-1.6662,-1.6639,-1.6728,-1.6737,-1.6745,-1.6774,-1.6785,-1.6649,-1.6648,-1.6648,-1.6648,0,-1.6571,-1.6597,-1.6627,-1.6638,-1.665,-1.6685,-1.6668,-1.6683,-1.6667,-1.6659,-1.6698,-1.6698,-1.6715,-1.6725,-1.6709,-1.6772,-1.6759,-1.6733,-1.6692,-1.6762,-1.6788,-1.6799,-1.6654,-1.6653,-1.6652,-1.6651,0,0,-1.6689,-1.6688,-1.6699,-1.6704,-1.6707,-1.6726,-1.6758,-1.6775,-1.6788,-1.6797,-1.6823,-1.6853,-1.6829,-1.6837,-1.6821,-1.6847,-1.6913,-1.6817,-1.6817,-1.6835,-1.6982,-1.7002,-1.7014,-1.6897,-1.6899,-1.6901,-1.6981,0,-1.677,-1.6825,-1.6807,-1.6863,-1.6886,-1.6852,-1.688,-1.6885,-1.6879,-1.6898,-1.689,-1.6912,-1.6878,-1.6883,-1.6906,-1.69,-1.6942,-1.6894,-1.6922,-1.6923,-1.6922,-1.7028,-1.7049,-1.7125,-1.6991,-1.6993,-1.6994,0,-1.6871,-1.6884,-1.6942,-1.6941,-1.695,-1.6976,-1.6989,-1.7008,-1.7012,-1.7006,-1.7015,-1.6994,-1.7025,-1.6984,-1.7028,-1.6995,-1.7005,-1.7004,-1.7006,-1.7008,-1.6963,-1.7033,-1.7149,-1.7161,-1.701,-1.7009,-1.7008,0,-1.6952,-1.6983,-1.7022,-1.7027,-1.7026,-1.7045,-1.7046,-1.7048,-1.7059,-1.7071,-1.7078,-1.7093,-1.7102,-1.7114,-1.7098,-1.707,-1.7144,-1.7101,-1.7139,-1.714,-1.7157,-1.7156,-1.7276,-1.7163,-1.7163,-1.7163,-1.7162,0,-1.7044,-1.7081,-1.7058,-1.7083,-1.7123,-1.7101,-1.7142,-1.7139,-1.7141,-1.7164,-1.7135,-1.7157,-1.7134,-1.7154,-1.7142,-1.7179,-1.7183,-1.7179,-1.7175,-1.7182,-1.7183,-1.7188,-1.7183,-1.7166,-1.7165,-1.7164,-1.7164,0,-1.7141,-1.7127,-1.7168,-1.7164,-1.7163,-1.7194,-1.719,-1.7212,-1.7203,-1.7233,-1.7238,-1.7225,-1.7247,-1.7232,-1.7254,-1.7245,-1.7295,-1.7284,-1.7294,-1.7291,-1.733,-1.7326,-1.7458,-1.7474,-1.7351,-1.7352,-1.7353,0,-1.7201,-1.7228,-1.7227,-1.7241,-1.7243,-1.7265,-1.7276,-1.7255,-1.7268,-1.7275,-1.7296,-1.7316,-1.733,-1.7367,-1.7359,-1.7376,-1.7365,-1.741,-1.7367,-1.7373,-1.7366,-1.7364,-1.7367,-1.7419,-1.742,-1.7421,-1.7422,0,-1.7308,-1.73,-1.7317,-1.7332,-1.7346,-1.7357,-1.7365,-1.7378,-1.7357,-1.7373,-1.7395,-1.7406,-1.7428,-1.7448,-1.7462,-1.7462,-1.7439,-1.7436,-1.7445,-1.7452,-1.7457,-1.7455,-1.7317,-1.7433,-1.7432,-1.7431,-1.743,-1.743,-1.7389,-1.7412,-1.7415,-1.7435,-1.7439,-1.7447,-1.7468,-1.7462,-1.748,-1.7496,-1.7483,-1.7509,-1.7513,-1.7529,-1.7532,-1.7552,-1.7534,-1.7548,-1.7551,-1.7555,-1.7561,-1.7454,-1.7555,-1.7554,-1.7554,-1.7554,-1.7553,0,-1.7495,-1.7495,-1.7514,-1.7526,-1.7542,-1.7519,-1.7527,-1.7542,-1.7565,-1.757,-1.7585,-1.761,-1.7629,-1.7623,-1.764,-1.7657,-1.7647,-1.7662,-1.7661,-1.7661,-1.7576,-1.7566,-1.767,-1.767,-1.767,-1.767,-1.767,-1.767,-1.7552,-1.759,-1.7582,-1.7622,-1.7622,-1.7647,-1.7654,-1.7661,-1.7665,-1.7695,-1.7711,-1.7706,-1.7707,-1.7723,-1.774,-1.7737,-1.7745,-1.7764,-1.7758,-1.7679,-1.7667,-1.7656,-1.7647,-1.7766,-1.7766,-1.7841,-1.7842,-1.7842]},{"header":{"parameterUnit":"m.s-1","parameterCategory":1,"la1":30.2991,"la2":30.254,"lo1":-89.0895,"lo2":-89.0444,"dy":0.0017,"dx":0.0017,"nx":28,"ny":28,"refTime":"2025-01-28T03:00:00:Z","depth":0,"parameterNumber":3,"parameterNumberName":"V-component_of_WINDS"},"data":[0,0,0,0,0,0,0,0,0,0,0,0,0,0,0,0,0,0,0,0,0,0,0,0,0,0,0,0,0,0,0,0,0,0,0,0,0,0,0,0,0,0,0,0,0,0,0,0,0,0,0,0,0,0,0,0,0,0,0.7099,0.7099,0,0.7142,0.7143,0.7143,0.7151,0.7151,0.7151,0.715,0.7197,0.7198,0.72,0,0,0,0,0,0,0,0,0,0,0,0,0,0.7027,0.7028,0.7099,0.7099,0.71,0.7142,0.7143,0.7143,0.7151,0.7151,0.715,0.715,0.7196,0.7198,0.72,0,0,0,0,0,0,0,0,0,0,0,0,0,0.7063,0.7028,0.7099,0.7109,0.711,0.7142,0.7143,0.7143,0.7151,0.7151,0.715,0.715,0.7196,0.7198,0.72,0.7225,0,0,0.7207,0.7208,0,0,0,0,0,0,0,0,0.7061,0.7066,0.7107,0.7108,0.711,0.7141,0.7134,0.7171,0.7152,0.7136,0.715,0.715,0.7179,0.7182,0.7192,0.7227,0.7229,0.7208,0.7209,0.721,0.7211,0,0,0,0,0,0,0,0.7058,0.7064,0.7116,0.7108,0.7109,0.7113,0.7117,0.7141,0.716,0.7137,0.7138,0.7143,0.7179,0.7189,0.7193,0.723,0.7208,0.721,0.7211,0.7212,0.729,0.7291,0,0,0,0,0,0,0.7054,0.7062,0.7115,0.7117,0.7084,0.7114,0.7119,0.7131,0.716,0.7163,0.7143,0.7143,0.7186,0.719,0.7195,0.7227,0.721,0.7212,0.7214,0.729,0.729,0.7291,0,0,0,0,0,0,0.7052,0.7058,0.7113,0.709,0.7097,0.7116,0.713,0.7133,0.7143,0.7164,0.7168,0.715,0.7185,0.7191,0.7218,0.7229,0.7213,0.7215,0.7289,0.729,0.7291,0.7291,0,0,0,0,0,0,0.705,0.7058,0.7067,0.709,0.7098,0.7135,0.713,0.7134,0.7146,0.7146,0.7171,0.7175,0.7185,0.7214,0.722,0.7232,0.7217,0.7288,0.7289,0.729,0.729,0.7292,0.7293,0,0,0,0,0,0.7047,0.7065,0.7067,0.7073,0.7109,0.7135,0.714,0.7151,0.7147,0.7157,0.7171,0.7174,0.7226,0.7217,0.7224,0.7236,0.7287,0.7289,0.729,0.7289,0.7292,0.7293,0,0,0,0,0,0,0.7043,0.7068,0.7071,0.7096,0.7113,0.7136,0.7149,0.7153,0.7172,0.7172,0.7185,0.7191,0.7217,0.7229,0.7218,0.7262,0.7257,0.726,0.7254,0.7256,0.7257,0.7255,0.7219,0,0,0,0,0,0.7045,0.7063,0.7084,0.7105,0.7113,0.713,0.7141,0.7148,0.7167,0.7175,0.719,0.7209,0.723,0.7243,0.7264,0.7292,0.7298,0.7304,0.7305,0.7306,0.7309,0.7326,0.733,0.7296,0.7296,0.7296,0,0,0.705,0.7066,0.7076,0.7105,0.7119,0.7138,0.7136,0.7156,0.7171,0.7178,0.7204,0.7216,0.7238,0.7266,0.7279,0.7277,0.732,0.7308,0.7309,0.7311,0.7328,0.7331,0.7334,0.7297,0.7297,0.7297,0,0,0.7068,0.7081,0.7101,0.7115,0.7136,0.7147,0.7152,0.7174,0.7183,0.7209,0.7215,0.7233,0.7268,0.7284,0.7297,0.7322,0.7326,0.7328,0.7337,0.7354,0.7356,0.7359,0.7369,0.7373,0.733,0.733,0.733,0,0.7071,0.71,0.711,0.713,0.7143,0.715,0.7171,0.7184,0.7211,0.7221,0.7217,0.7262,0.7277,0.731,0.7316,0.7325,0.7332,0.7326,0.7355,0.7357,0.736,0.737,0.7374,0.7331,0.7331,0.7331,0.7331,0,0.7104,0.7123,0.7136,0.7162,0.7176,0.7197,0.7211,0.7225,0.7231,0.7242,0.727,0.7288,0.7313,0.7321,0.7327,0.7354,0.7353,0.7352,0.7347,0.7363,0.7373,0.7377,0.7331,0.7331,0.7331,0.7331,0,0,0.7121,0.7152,0.7157,0.7169,0.7193,0.7209,0.723,0.7254,0.7266,0.7285,0.7304,0.7333,0.7333,0.7348,0.7356,0.737,0.7391,0.7368,0.7369,0.7373,0.7424,0.7425,0.7429,0.7393,0.7394,0.7395,0.7423,0,0.7143,0.718,0.719,0.7222,0.7242,0.7248,0.7267,0.7285,0.7296,0.7315,0.7328,0.735,0.7347,0.7356,0.737,0.7385,0.7402,0.7383,0.7413,0.7414,0.7408,0.7434,0.7436,0.7461,0.7426,0.7427,0.7428,0,0.7174,0.7193,0.7227,0.7249,0.7258,0.7274,0.7297,0.7315,0.7335,0.7343,0.7359,0.7366,0.739,0.7382,0.7416,0.7403,0.7416,0.7425,0.7427,0.7431,0.7422,0.7441,0.7469,0.7474,0.7433,0.7433,0.7433,0,0.7185,0.7219,0.7244,0.7254,0.7281,0.7292,0.7304,0.7324,0.7338,0.7358,0.7368,0.7391,0.7404,0.7422,0.7436,0.7429,0.7469,0.7462,0.7477,0.7477,0.7486,0.7485,0.7518,0.7492,0.7492,0.7492,0.7492,0,0.721,0.723,0.7249,0.7265,0.7288,0.73,0.7324,0.7336,0.7354,0.7373,0.738,0.7398,0.7414,0.7435,0.7445,0.7473,0.7478,0.7486,0.7489,0.7486,0.7485,0.7495,0.7495,0.7493,0.7492,0.7492,0.7492,0,0.7226,0.7239,0.7267,0.729,0.7297,0.7313,0.7334,0.735,0.7361,0.7385,0.7392,0.7411,0.7435,0.745,0.7481,0.7488,0.7519,0.752,0.7512,0.7513,0.7528,0.7527,0.757,0.7577,0.7544,0.7544,0.7545,0,0.7242,0.7258,0.7283,0.7295,0.7307,0.7328,0.7342,0.7355,0.737,0.7395,0.7408,0.7433,0.7453,0.7492,0.7509,0.7534,0.7537,0.755,0.754,0.7538,0.7539,0.7538,0.7541,0.7552,0.7552,0.7553,0.7553,0,0.7268,0.7274,0.7294,0.7316,0.7333,0.7351,0.7369,0.738,0.7396,0.7412,0.7437,0.7453,0.7485,0.751,0.7536,0.7549,0.7554,0.7555,0.756,0.7558,0.7553,0.7558,0.7518,0.7555,0.7554,0.7554,0.7554,0.7554,0.7286,0.7301,0.7321,0.7343,0.7358,0.7375,0.7392,0.7405,0.7426,0.7452,0.7459,0.7485,0.7507,0.7542,0.7556,0.7578,0.7576,0.7583,0.7585,0.7587,0.7588,0.7549,0.7582,0.7582,0.7582,0.7582,0.7582,0,0.7314,0.7327,0.7347,0.7372,0.739,0.7392,0.7413,0.7428,0.7451,0.747,0.749,0.752,0.7544,0.7563,0.7589,0.7603,0.7606,0.7609,0.7609,0.7612,0.7587,0.7581,0.7606,0.7606,0.7606,0.7606,0.7606,0.7606,0.733,0.7357,0.7365,0.7399,0.7413,0.7438,0.745,0.7466,0.7482,0.7514,0.7534,0.7546,0.7566,0.7593,0.7616,0.7621,0.7631,0.7634,0.764,0.7616,0.7614,0.7611,0.7606,0.7636,0.7636,0.7664,0.7664,0.7664]}]]